DW9584 Weather Reports


time (UTC)temp
C
wind
direction
speed
KPH
gust
KPH
rain 1hr
cm
rain 24hr
cm
rain mn
cm
humidity
%
barometer
mb
20200803150212 31 1 0.0 1.6 0.00 0.00 0.00 58 1017.7
20200803145559 31 129 0.0 1.6 0.00 0.00 0.00 59 1017.7
20200803145501 31 129 0.0 1.6 0.00 0.00 0.00 59 1017.7
20200803145058 31 214 0.0 1.6 0.00 0.00 0.00 60 1017.6
20200803144100 30 131 0.0 1.6 0.00 0.00 0.00 61 1017.7
20200803143556 29 25 0.0 3.2 0.00 0.00 0.00 63 1017.6
20200803143115 29 107 0.0 3.2 0.00 0.00 0.00 63 1017.6
20200803142600 29 16 0.0 1.6 0.00 0.00 0.00 64 1017.6
20200803142056 29 15 0.0 1.6 0.00 0.00 0.00 64 1017.6
20200803141703 29 54 0.0 1.6 0.00 0.00 0.00 65 1017.7
20200803141056 29 50 0.0 1.6 0.00 0.00 0.00 64 1017.8
20200803140601 29 82 0.0 1.6 0.00 0.00 0.00 61 1017.8
20200803140128 29 160 0.0 1.6 0.00 0.00 0.00 65 1017.7
20200803135616 29 161 0.0 3.2 0.00 0.00 0.00 63 1017.8
20200803135053 29 236 0.0 3.2 0.00 0.00 0.00 64 1017.7
20200803134059 28 158 0.0 3.2 0.00 0.00 0.00 66 1017.7
20200803133604 27 200 0.0 3.2 0.00 0.00 0.00 67 1017.6
20200803133218 27 163 0.0 1.6 0.00 0.00 0.00 67 1017.5
20200803132557 27 356 0.0 1.6 0.00 0.00 0.00 69 1017.5
20200803132057 26 72 0.0 1.6 0.00 0.00 0.00 69 1017.5
20200803131730 26 97 0.0 0.0 0.00 0.00 0.00 70 1017.5
20200803131102 26 94 0.0 0.0 0.00 0.00 0.00 70 1017.5
20200803130621 26 104 0.0 1.6 0.00 0.00 0.00 70 1017.5
20200803130145 26 144 0.0 1.6 0.00 0.00 0.00 70 1017.5
20200803125556 26 41 0.0 1.6 0.00 0.00 0.00 70 1017.6
20200803125054 26 77 0.0 0.0 0.00 0.00 0.00 71 1017.4
20200803124058 26 45 0.0 1.6 0.00 0.00 0.00 72 1017.3
20200803123554 26 142 0.0 1.6 0.00 0.00 0.00 71 1017.3
20200803123155 26 153 0.0 1.6 0.00 0.00 0.00 73 1017.2
20200803122602 26 108 0.0 1.6 0.00 0.00 0.00 72 1017.3
20200803122052 26 109 0.0 1.6 0.00 0.00 0.00 72 1017.3
20200803121656 26 102 0.0 0.0 0.00 0.00 0.00 72 1017.1
20200803121058 26 98 0.0 0.0 0.00 0.00 0.00 74 1017.0
20200803120552 26 99 0.0 0.0 0.00 0.00 0.00 75 1017.2
20200803120212 25 98 0.0 0.0 0.00 0.00 0.00 76 1017.0
20200803115602 25 97 0.0 1.6 0.00 0.00 0.00 77 1017.0
20200803115049 25 356 0.0 0.0 0.00 0.00 0.00 81 1016.9
20200803114045 23 356 0.0 0.0 0.00 0.00 0.00 86 1016.9
20200803113604 23 356 0.0 0.0 0.00 0.00 0.00 86 1016.8
20200803113201 22 356 0.0 0.0 0.00 0.00 0.00 86 1016.8
20200803112559 22 357 0.0 0.0 0.00 0.00 0.00 87 1016.9
20200803112051 22 356 0.0 0.0 0.00 0.00 0.00 87 1016.7
20200803111616 22 356 0.0 0.0 0.00 0.00 0.00 86 1016.7
20200803111045 22 356 0.0 0.0 0.00 0.00 0.00 86 1016.6
20200803110614 22 357 0.0 0.0 0.00 0.00 0.00 86 1016.7
20200803110245 22 356 0.0 0.0 0.00 0.00 0.00 85 1016.6
20200803105559 22 356 0.0 0.0 0.00 0.00 0.00 85 1016.6
20200803105048 22 356 0.0 0.0 0.00 0.00 0.00 84 1016.5
20200803104052 22 356 0.0 0.0 0.00 0.00 0.00 84 1016.4
20200803103550 22 356 0.0 0.0 0.00 0.00 0.00 83 1016.2
20200803103055 22 356 0.0 0.0 0.00 0.00 0.00 83 1016.2
20200803102551 23 356 0.0 0.0 0.00 0.00 0.00 83 1016.2
20200803102049 23 356 0.0 0.0 0.00 0.00 0.00 83 1016.3
20200803101600 23 356 0.0 0.0 0.00 0.00 0.00 83 1016.2
20200803101047 23 356 0.0 0.0 0.00 0.00 0.00 82 1016.0
20200803100546 23 356 0.0 0.0 0.00 0.00 0.00 81 1015.6
20200803100046 23 356 0.0 0.0 0.00 0.00 0.00 82 1015.2
20200803095557 23 356 0.0 0.0 0.00 0.00 0.00 81 1015.1
20200803095048 23 356 0.0 0.0 0.00 0.00 0.00 80 1015.2
20200803094035 24 26 0.0 0.0 0.00 0.00 0.00 79 1015.3
20200803093535 25 26 0.0 1.6 0.00 0.00 0.00 78 1015.4
20200803093114 25 25 0.0 1.6 0.00 0.00 0.00 76 1015.5
20200803092548 24 50 0.0 1.6 0.00 0.00 0.00 76 1015.4
20200803092035 24 100 0.0 0.0 0.00 0.00 0.00 78 1015.5
20200803091538 24 98 0.0 0.0 0.00 0.00 0.00 78 1015.4
20200803091033 24 319 0.0 0.0 0.00 0.00 0.00 78 1015.2
20200803090533 24 319 0.0 1.6 0.00 0.00 0.00 79 1015.2
20200803090156 24 319 0.0 1.6 0.00 0.00 0.00 79 1015.1
20200803085557 24 171 0.0 0.0 0.00 0.00 0.00 80 1014.9
20200803085045 24 171 0.0 0.0 0.00 0.00 0.00 79 1015.0
20200803084033 24 177 0.0 1.6 0.00 0.00 0.00 80 1014.9
20200803083543 24 177 0.0 0.0 0.00 0.00 0.00 80 1014.8
20200803083134 24 225 0.0 0.0 0.00 0.00 0.00 80 1014.8
20200803082536 24 225 0.0 0.0 0.00 0.00 0.00 80 1014.8
20200803082037 24 225 0.0 0.0 0.00 0.00 0.00 79 1014.7
20200803081551 24 218 0.0 0.0 0.00 0.00 0.00 79 1014.6
20200803081030 24 219 0.0 0.0 0.00 0.00 0.00 79 1014.5
20200803080535 24 347 0.0 0.0 0.00 0.00 0.00 80 1014.3
20200803080038 25 347 0.0 0.0 0.00 0.00 0.00 81 1014.2
20200803075530 25 347 0.0 0.0 0.00 0.00 0.00 81 1014.0
20200803075040 25 347 0.0 0.0 0.00 0.00 0.00 81 1014.0
20200803074029 25 345 0.0 0.0 0.00 0.00 0.00 83 1014.0
20200803073555 25 345 0.0 0.0 0.00 0.00 0.00 83 1014.1
20200803073040 25 345 0.0 0.0 0.00 0.00 0.00 84 1014.1
20200803072527 25 345 0.0 0.0 0.00 0.00 0.00 85 1014.0
20200803072033 25 344 0.0 0.0 0.00 0.00 0.00 85 1014.0
20200803071631 25 345 0.0 0.0 0.00 0.00 0.00 86 1014.1
20200803071026 25 345 0.0 0.0 0.00 0.00 0.00 86 1014.0
20200803070524 25 345 0.0 0.0 0.00 0.00 0.00 86 1014.0
20200803070024 25 344 0.0 0.0 0.00 0.00 0.00 87 1014.0
20200803065528 25 345 0.0 0.0 0.00 0.00 0.00 87 1013.8
20200803065027 25 344 0.0 0.0 0.00 0.00 0.00 87 1013.8
20200803064017 25 344 0.0 0.0 0.00 0.00 0.00 87 1013.8
20200803063515 25 345 0.0 0.0 0.00 0.00 0.00 87 1013.9
20200803063052 25 345 0.0 0.0 0.00 0.00 0.00 87 1013.9
20200803062521 26 344 0.0 0.0 0.00 0.00 0.00 87 1013.9
20200803062021 26 345 0.0 0.0 0.00 0.00 0.00 87 1013.8
20200803061537 26 344 0.0 0.0 0.00 0.00 0.00 87 1013.7
20200803061022 26 344 0.0 0.0 0.00 0.00 0.00 87 1013.7
20200803060518 26 345 0.0 0.0 0.00 0.00 0.00 87 1013.7
20200803060011 26 345 0.0 1.6 0.00 0.00 0.00 87 1013.6
20200803055511 26 345 0.0 1.6 0.00 0.00 0.00 87 1013.6
20200803055012 26 1 0.0 0.0 0.00 0.00 0.00 88 1013.6
20200803054013 26 1 0.0 1.6 0.00 0.00 0.00 88 1013.6
20200803053526 26 1 0.0 1.6 0.00 0.00 0.00 88 1013.6
20200803053040 26 356 0.0 1.6 0.00 0.00 0.00 88 1013.6
20200803052516 26 356 0.0 1.6 0.00 0.00 0.00 88 1013.4
20200803052010 26 356 0.0 1.6 0.00 0.00 0.00 88 1013.4
20200803051511 26 356 0.0 0.0 0.00 0.00 0.00 88 1013.4
20200803051010 26 356 0.0 1.6 0.00 0.00 0.00 88 1013.3
20200803050509 26 356 0.0 1.6 0.00 0.00 0.00 88 1013.4
20200803050025 27 356 0.0 0.0 0.00 0.00 0.00 87 1013.5
20200803045508 27 356 0.0 0.0 0.00 0.00 0.00 87 1013.5
20200803045007 27 356 0.0 0.0 0.00 0.00 0.00 87 1013.5
20200803044025 27 356 0.0 0.0 0.00 0.00 0.00 86 1013.5
20200803043508 27 356 0.0 1.6 0.00 0.00 0.00 86 1013.5
20200803043008 27 34 0.0 1.6 0.00 0.00 0.00 86 1013.4
20200803042511 27 34 0.0 1.6 0.00 0.00 0.00 86 1013.4
20200803042006 27 338 0.0 1.6 0.00 0.00 0.00 86 1013.3
20200803041507 27 339 0.0 1.6 0.00 0.00 0.00 86 1013.2
20200803041006 27 340 0.0 1.6 0.00 0.00 0.00 86 1013.1
20200803040511 27 340 0.0 1.6 0.00 0.00 0.00 86 1013.1
20200803040003 27 332 0.0 1.6 0.00 0.00 0.00 85 1013.0
20200803035600 27 244 0.0 1.6 0.00 0.00 0.00 85 1012.9
20200803035108 27 244 0.0 1.6 0.00 0.00 0.00 85 1012.9
20200803035002 27 245 0.0 1.6 0.00 0.00 0.00 85 1012.8
20200803034102 27 353 0.0 1.6 0.00 0.00 0.00 84 1012.9
20200803033555 27 354 0.0 3.2 0.00 0.00 0.00 84 1012.9
20200803033207 27 50 0.0 1.6 0.00 0.00 0.00 84 1012.9
20200803032554 28 120 0.0 1.6 0.00 0.00 0.00 84 1012.8
20200803032054 28 120 0.0 1.6 0.00 0.00 0.00 83 1012.8
20200803031736 28 131 0.0 1.6 0.00 0.00 0.00 83 1012.8
20200803031055 28 77 0.0 1.6 0.00 0.00 0.00 83 1012.8
20200803030613 28 96 0.0 1.6 0.00 0.00 0.00 83 1012.9
20200803030106 28 186 0.0 1.6 0.00 0.00 0.00 82 1012.8
20200803025608 28 67 0.0 1.6 0.00 0.00 0.00 82 1012.7
20200803025053 28 139 0.0 4.8 0.00 0.00 0.00 82 1012.6
20200803024001 28 8 0.0 1.6 0.00 0.00 0.00 82 1012.5
20200803023501 28 78 0.0 1.6 0.00 0.00 0.00 82 1012.6
20200803023003 28 78 0.0 3.2 0.00 0.00 0.00 82 1012.5
20200803022508 28 37 0.0 3.2 0.00 0.00 0.00 82 1012.5
20200803022006 28 23 0.0 3.2 0.00 0.00 0.00 82 1012.4
20200803021658 28 23 0.0 3.2 0.00 0.00 0.00 82 1012.4
20200803021105 28 36 0.0 3.2 0.00 0.00 0.00 82 1012.4
20200803021003 28 79 0.0 1.6 0.00 0.00 0.00 83 1012.4
20200803020503 29 358 0.0 1.6 0.00 0.00 0.00 83 1012.3
20200803015605 29 23 0.0 1.6 0.00 0.00 0.00 83 1012.4
20200803015120 29 26 0.0 1.6 0.00 0.00 0.00 83 1012.4
20200803014004 29 116 0.0 6.4 0.00 0.00 0.00 82 1012.3
20200803013512 29 204 0.0 4.8 0.00 0.00 0.00 81 1012.2
20200803013010 30 347 0.0 3.2 0.00 0.00 0.00 80 1012.1
20200803012521 30 50 0.0 4.8 0.00 0.00 0.00 79 1012.0
20200803012003 30 39 0.0 4.8 0.00 0.00 0.00 78 1011.9
20200803011504 30 29 0.0 4.8 0.00 0.00 0.00 77 1011.9
20200803011003 30 183 0.0 3.2 0.00 0.00 0.00 77 1011.9
20200803010503 30 61 0.0 3.2 0.00 0.00 0.00 76 1011.9
20200803010021 30 42 0.0 4.8 0.00 0.00 0.00 75 1011.8
20200803005506 30 108 0.0 4.8 0.00 0.00 0.00 74 1011.8
20200803005004 30 15 0.0 3.2 0.00 0.00 0.00 74 1011.7
20200803004007 30 205 0.0 1.6 0.00 0.00 0.00 73 1011.6
20200803003509 30 46 0.0 1.6 0.00 0.00 0.00 73 1011.5
20200803003007 30 44 0.0 1.6 0.00 0.00 0.00 72 1011.3
20200803002507 30 37 0.0 8.0 0.00 0.00 0.00 72 1011.4
20200803002006 30 13 0.0 8.0 0.00 0.00 0.00 72 1011.3
20200803001523 30 98 0.0 3.2 0.00 0.00 0.00 72 1011.3
20200803001024 30 65 0.0 6.4 0.00 0.00 0.00 72 1011.4
20200803000510 30 226 0.0 6.4 0.00 0.00 0.00 72 1011.3
20200803000012 30 48 0.0 6.4 0.00 0.00 0.00 71 1011.3
20200802235506 31 44 0.0 4.8 0.00 0.00 0.00 71 1011.3
20200802235024 31 340 0.0 3.2 0.00 0.00 0.00 71 1011.3
20200802234100 30 225 0.0 4.8 0.00 0.00 0.00 70 1011.3
20200802233600 31 68 0.0 6.4 0.00 0.00 0.00 70 1011.2
20200802233239 31 70 0.0 6.4 0.00 0.00 0.00 70 1011.2
20200802232600 31 351 0.0 4.8 0.00 0.00 0.00 71 1011.1
20200802232142 31 131 0.0 3.2 0.00 0.00 0.00 72 1011.1
20200802231628 31 41 0.0 3.2 0.00 0.00 0.00 71 1011.1
20200802231059 31 34 0.0 3.2 0.00 0.00 0.00 71 1011.0
20200802230608 31 333 0.0 3.2 0.00 0.00 0.00 71 1010.9
20200802230230 31 4 0.0 8.0 0.00 0.00 0.00 70 1010.8
20200802225559 31 46 0.0 8.0 0.00 0.00 0.00 70 1010.7
20200802225059 31 63 0.0 6.4 0.00 0.00 0.00 71 1010.7
20200802224013 31 114 0.0 6.4 0.00 0.00 0.00 70 1010.6
20200802223524 31 248 0.0 6.4 0.00 0.00 0.00 69 1010.7
20200802223020 31 108 0.0 6.4 0.00 0.00 0.00 69 1010.7
20200802222513 31 323 0.0 6.4 0.00 0.00 0.00 68 1010.7
20200802222014 31 25 0.0 6.4 0.00 0.00 0.00 68 1010.7
20200802221608 31 316 0.0 4.8 0.00 0.00 0.00 69 1010.7
20200802221017 31 5 0.0 4.8 0.00 0.00 0.00 68 1010.6
20200802220532 32 40 0.0 9.7 0.00 0.00 0.00 68 1010.6
20200802220012 32 60 0.0 9.7 0.00 0.00 0.00 66 1010.6
20200802215515 32 26 0.0 6.4 0.00 0.00 0.00 66 1010.6
20200802215015 32 47 0.0 6.4 0.00 0.00 0.00 65 1010.6
20200802214002 32 88 0.0 4.8 0.00 0.00 0.00 67 1010.5
20200802213502 32 34 0.0 4.8 0.00 0.00 0.00 66 1010.6
20200802213008 32 11 0.0 8.0 0.00 0.00 0.00 68 1010.5
20200802212503 32 280 0.0 9.7 0.00 0.00 0.00 67 1010.6
20200802212007 32 51 1.6 9.7 0.00 0.00 0.00 66 1010.7
20200802211508 32 251 0.0 8.0 0.00 0.00 0.00 67 1010.6
20200802211001 32 36 0.0 6.4 0.00 0.00 0.00 68 1010.7
20200802210507 32 255 0.0 6.4 0.00 0.00 0.00 68 1010.7
20200802205506 32 250 0.0 9.7 0.00 0.00 0.00 68 1010.6
20200802205100 32 193 0.0 8.0 0.00 0.00 0.00 67 1010.5
20200802205009 32 195 1.6 8.0 0.00 0.00 0.00 67 1010.6
20200802204042 32 108 0.0 8.0 0.00 0.00 0.00 68 1010.5
20200802203542 32 112 0.0 8.0 0.00 0.00 0.00 68 1010.4
20200802203205 32 332 1.6 8.0 0.00 0.00 0.00 68 1010.4
20200802202544 32 68 0.0 4.8 0.00 0.00 0.00 68 1010.3
20200802202043 32 297 0.0 4.8 0.00 0.00 0.00 69 1010.4
20200802201620 32 50 0.0 8.0 0.00 0.00 0.00 67 1010.4
20200802201041 32 92 0.0 8.0 0.00 0.00 0.00 68 1010.6
20200802200540 32 5 1.6 11.3 0.00 0.00 0.00 65 1010.6
20200802200118 32 293 1.6 11.3 0.00 0.00 0.00 66 1010.6
20200802195553 32 72 0.0 8.0 0.00 0.00 0.00 67 1010.6
20200802195040 32 74 0.0 8.0 0.00 0.00 0.00 66 1010.6
20200802194039 32 97 1.6 14.5 0.00 0.00 0.00 67 1010.7
20200802193545 32 284 1.6 6.4 0.00 0.00 0.00 68 1010.8
20200802193056 32 1 0.0 4.8 0.00 0.00 0.00 69 1010.9
20200802192548 32 8 0.0 4.8 0.00 0.00 0.00 69 1010.9
20200802192038 32 86 0.0 4.8 0.00 0.00 0.00 70 1010.8
20200802191547 32 323 0.0 4.8 0.00 0.00 0.00 70 1010.8
20200802191036 32 36 0.0 4.8 0.00 0.00 0.00 71 1010.9
20200802190537 32 70 0.0 3.2 0.00 0.00 0.00 71 1011.0
20200802190042 32 50 0.0 6.4 0.00 0.00 0.00 72 1010.9
20200802185534 33 84 1.6 8.0 0.00 0.00 0.00 70 1011.0
20200802185042 33 43 0.0 8.0 0.00 0.00 0.00 70 1011.0
20200802184042 32 288 0.0 4.8 0.00 0.00 0.00 69 1011.1
20200802183536 32 15 0.0 4.8 0.00 0.00 0.00 71 1011.1
20200802183039 32 232 0.0 8.0 0.00 0.00 0.00 70 1011.2
20200802182552 32 63 0.0 8.0 0.00 0.00 0.00 73 1011.3
20200802182032 32 29 0.0 6.4 0.00 0.00 0.00 72 1011.2
20200802181612 32 34 0.0 6.4 0.00 0.00 0.00 72 1011.3
20200802181034 32 85 1.6 4.8 0.00 0.00 0.00 72 1011.3
20200802180530 32 76 0.0 6.4 0.00 0.00 0.00 73 1011.4
20200802180045 32 84 0.0 4.8 0.00 0.00 0.00 73 1011.4
20200802175532 32 352 0.0 4.8 0.00 0.00 0.00 71 1011.5
20200802175033 32 44 0.0 8.0 0.00 0.00 0.00 69 1011.4
20200802174020 32 44 0.0 6.4 0.00 0.00 0.00 71 1011.4
20200802173539 32 108 0.0 6.4 0.00 0.00 0.00 71 1011.5
20200802173021 32 97 0.0 6.4 0.00 0.00 0.00 72 1011.4
20200802172524 32 131 0.0 4.8 0.00 0.00 0.00 72 1011.5
20200802172026 32 109 0.0 4.8 0.00 0.00 0.00 74 1011.5
20200802171518 32 11 0.0 3.2 0.00 0.00 0.00 74 1011.7
20200802171032 31 90 0.0 3.2 0.00 0.00 0.00 76 1011.7
20200802170514 31 63 0.0 11.3 0.00 0.00 0.00 76 1011.8
20200802170014 31 35 1.6 11.3 0.00 0.00 0.00 76 1011.8
20200802165510 30 348 0.0 4.8 0.00 0.00 0.00 78 1011.8
20200802165010 30 26 0.0 4.8 0.00 0.00 0.00 78 1011.9
20200802164017 30 80 0.0 6.4 0.00 0.00 0.00 78 1012.0
20200802163525 30 25 0.0 1.6 0.00 0.00 0.00 78 1012.0
20200802163048 30 44 0.0 1.6 0.00 0.00 0.00 77 1012.1
20200802162522 30 348 0.0 1.6 0.00 0.00 0.00 79 1012.2
20200802162018 30 15 0.0 8.0 0.00 0.00 0.00 78 1012.2
20200802161547 31 7 0.0 1.6 0.00 0.00 0.00 80 1012.3
20200802161013 30 96 0.0 1.6 0.00 0.00 0.00 81 1012.4
20200802160533 30 133 0.0 4.8 0.00 0.00 0.00 80 1012.5
20200802160013 30 116 1.6 4.8 0.00 0.00 0.00 79 1012.5
20200802155510 30 80 0.0 3.2 0.00 0.00 0.00 80 1012.5
20200802155009 30 11 0.0 3.2 0.00 0.00 0.00 81 1012.5
20200802154008 29 18 0.0 3.2 0.00 0.00 0.00 81 1012.6
20200802153510 29 86 0.0 3.2 0.00 0.00 0.00 81 1012.6
20200802153019 30 79 0.0 3.2 0.00 0.00 0.00 82 1012.7
20200802152510 29 330 0.0 3.2 0.00 0.00 0.00 82 1012.6
20200802152009 29 116 0.0 8.0 0.00 0.00 0.00 84 1012.6
20200802151504 28 20 0.0 8.0 0.00 0.00 0.00 86 1012.6
20200802151002 28 61 0.0 3.2 0.00 0.00 0.00 87 1012.7